Station HLNM4 - 9087031 - Holland, MI Image indicating link to RSS feed of recent meteorological observations for station HLNM4


Conditions at HLNM4 as of
(8:18 pm EDT on 07/13/2024)
0018 GMT on 07/14/2024:
     

Click on the graph icon in the table below to see a time series plot of the last five days of that observation.

5-day plot - Wind Direction Wind Direction (WDIR):ESE ( 110 deg true )
5-day plot - Wind Speed Wind Speed (WSPD): 2.9 kts
5-day plot - Wind Gust Wind Gust (GST): 5.1 kts
5-day plot - Atmospheric Pressure Atmospheric Pressure (PRES):30.02 in
5-day plot - Air Temperature Air Temperature (ATMP): 81.1 °F
5-day plot - Water Temperature Water Temperature (WTMP): 67.8 °F
5-day plot - Dew Point Dew Point (DEWP): 61.9 °F
5-day plot - Heat Index Heat Index (HEAT): 82.2 °F
5-day plot - Wind Speed at 10 Meters Wind Speed at 10 meters (WSPD10M): 3.9 kts
5-day plot - Wind Speed at 20 Meters Wind Speed at 20 meters (WSPD20M): 3.9 kts
5-day plot -  Wind Speed, Wind Gust and Atmospheric Pressure Combined plot of Wind Speed, Gust, and Air Pressure
NOS Water Level Observation Network Water Level
Previous observations
TIME
(EDT)
5-day plot - Wind Direction
WDIR
 
5-day plot - Wind Speed
WSPD
kts
5-day plot - Wind Gust
GST
kts
5-day plot - Wave Height
WVHT
ft
5-day plot - Dominant Wave Period
DPD
sec
5-day plot - Average Wave Period
APD
sec
5-day plot - Mean Wave Direction
MWD
 
5-day plot - Atmospheric Pressure
PRES
in
5-day plot - Pressure Tendency
PTDY
in
5-day plot - Air Temperature
ATMP
°F
5-day plot - Water Temperature
WTMP
°F
5-day plot - Dew Point
DEWP
°F
5-day plot - Salinity
SAL
psu
5-day plot - Visibility
VIS
nmi
5-day plot - Tide (above MLLW)
TIDE
ft
2024-07-13 08:12 pmESE 2.9 4.1----30.02- 79.2 66.2 59.7---
2024-07-13 08:06 pm SE 5.1 8.0----30.03- 78.1 64.4 60.4---
2024-07-13 08:00 pmSSE 8.0 8.9----30.03-0.06 78.8 63.7 60.1---
2024-07-13 07:54 pm S 8.0 8.9----30.04- 78.6 63.7 60.3---
2024-07-13 07:48 pmSSE 6.0 8.0----30.04- 77.5 64.0 61.0---
2024-07-13 07:42 pmSSE 6.0 8.9----30.04- 76.6 63.0 61.0---
2024-07-13 07:36 pm S 8.0 8.9----30.04- 75.6 62.1 60.1---
2024-07-13 07:30 pmSSE 7.0 8.0----30.04- 76.5 61.0 59.0---
2024-07-13 07:24 pm S 8.0 8.0----30.04- 76.8 59.2 57.4---
2024-07-13 07:18 pm S 7.0 8.0----30.04- 77.7 58.8 56.7---
2024-07-13 07:12 pmSSE 7.0 8.0----30.03- 78.1 58.5 56.3---
2024-07-13 07:06 pmSSE 7.0 7.0----30.03- 78.6 58.5 55.2---
2024-07-13 07:00 pmSSE 6.0 7.0----30.04-0.06 77.9 58.8 55.9---
2024-07-13 06:54 pm S 7.0 7.0----30.04- 77.4 59.5 55.0---
2024-07-13 06:48 pm S 6.0 7.0----30.04- 77.7 58.6 54.5---
2024-07-13 06:42 pm S 6.0 7.0----30.04- 78.4 58.5 54.5---
2024-07-13 06:36 pm S 7.0 7.0----30.04- 79.2 59.9 54.5---
2024-07-13 06:30 pmSSE 6.0 6.0----30.04-- 62.2----
2024-07-13 06:24 pmSSE 5.1 5.1----30.04-- 65.3----
2024-07-13 06:18 pmSSE 5.1 5.1----30.05- 79.2 70.0 55.2---
2024-07-13 06:12 pmSSE 2.9 2.9----30.05- 79.7 69.3 56.3---
2024-07-13 06:06 pmSSE 1.9 2.9----30.06- 80.2 68.7 56.3---
2024-07-13 06:00 pm S 1.9 1.9----30.06-0.05 80.8 67.8----
2024-07-13 05:54 pm S 1.0 1.9----30.06- 81.3 68.0----
2024-07-13 05:48 pm- 0.0 0.0----30.06- 79.9 71.2 55.9---
2024-07-13 05:42 pm- 0.0 0.0----30.07- 79.3 70.9 54.9---
2024-07-13 05:36 pm- 0.0 1.0----30.07- 79.2 71.4 55.0---
2024-07-13 05:30 pm- 0.0 1.0----30.08-- 71.4----
2024-07-13 05:24 pm- 0.0 1.0----30.08-- 71.1----
2024-07-13 05:18 pm NW 1.0 1.0----30.08- 78.1 69.4 56.3---
2024-07-13 05:12 pmWNW 1.9 1.9----30.08- 77.2 68.0 57.0---
2024-07-13 05:06 pm NW 1.0 1.9----30.08- 77.7 66.2 56.8---
2024-07-13 05:00 pm- 0.0 1.0----30.09-0.05 77.9 64.2 60.8---
2024-07-13 04:54 pm- 0.0 1.0----30.09- 76.8 63.7 62.1---
2024-07-13 04:48 pm- 0.0 0.0----30.09- 77.9 63.1 61.5---
2024-07-13 04:42 pm- 0.0 1.0----30.09- 77.4 62.1 61.5---
2024-07-13 04:36 pm- 0.0 1.9----30.09- 77.4 63.1 61.2---
2024-07-13 04:30 pm- 0.0 1.0----30.10-- 64.2----
2024-07-13 04:24 pm S 1.0 1.9----30.10-- 64.9----
2024-07-13 04:18 pmSSW 1.9 1.9----30.10- 75.9 63.0 59.9---
2024-07-13 04:12 pm S 1.9 2.9----30.11- 75.4 61.5 60.4---
2024-07-13 04:06 pm S 2.9 4.1----30.10- 75.2 63.3 60.4---
2024-07-13 04:00 pm S 2.9 4.1----30.10-0.02- 65.3----
2024-07-13 03:54 pm S 4.1 5.1----30.10-- 66.6----
2024-07-13 03:48 pm S 5.1 5.1----30.11-- 66.2----
2024-07-13 03:42 pmSSE 4.1 5.1----30.11-- 66.4----
2024-07-13 03:36 pm S 4.1 4.1----30.11-- 67.1----
2024-07-13 03:30 pm S 4.1 4.1----30.11- 74.5 67.5 61.2---
2024-07-13 03:24 pm S 4.1 4.1----30.11- 74.8 69.8 61.0---
2024-07-13 03:18 pm S 4.1 4.1----30.11- 74.8 71.1 60.8---
2024-07-13 03:12 pm S 4.1 4.1----30.11- 74.7 69.3 61.5---
2024-07-13 03:06 pm S 4.1 4.1----30.11- 74.7 68.2 62.2---
2024-07-13 03:00 pm S 2.9 2.9----30.11-0.02- 68.2----
2024-07-13 02:54 pm S 2.9 2.9----30.11-- 69.6----
2024-07-13 02:48 pm S 1.9 2.9----30.12- 73.8 69.4 62.2---
2024-07-13 02:42 pmSSW 1.9 2.9----30.12- 73.8 68.5 61.5---
2024-07-13 02:36 pm SW 1.9 1.9----30.12- 73.9 70.3 60.8---
2024-07-13 02:30 pm SW 1.9 1.9----30.12- 73.9 70.0 61.0---
2024-07-13 02:24 pm SW 1.9 1.9----30.12- 74.1 68.2 60.3---
2024-07-13 02:18 pm SW 1.0 1.9----30.13- 74.1 68.2 61.3---
2024-07-13 02:12 pm SW 1.0 1.0----30.13- 73.6 68.2 59.2---
2024-07-13 02:06 pm SW 1.0 2.9----30.13- 73.4 66.9 59.0---
2024-07-13 02:00 pm SW 2.9 2.9----30.13+0.00 73.2 65.7 58.3---
2024-07-13 01:54 pm SW 1.9 1.9----30.13- 73.8 65.3 57.4---
2024-07-13 01:48 pm SW 1.9 1.9----30.13-------
2024-07-13 01:42 pm S 1.9 2.9----30.12-------
2024-07-13 01:36 pm S 2.9 2.9----30.12-------
2024-07-13 01:30 pm S 2.9 2.9----30.12- 73.2- 57.9---
2024-07-13 01:24 pm S 2.9 2.9----30.12- 73.2- 58.5---
2024-07-13 01:18 pm S 2.9 2.9----30.12- 72.9- 59.0---
2024-07-13 01:12 pm S 2.9 2.9----30.12- 72.7- 59.4---
2024-07-13 01:06 pm S 2.9 4.1----30.13- 72.3- 59.5---
2024-07-13 01:00 pm-------30.12-0.02------
2024-07-13 12:54 pm-------30.13-------
2024-07-13 12:48 pm S 2.9 2.9----30.13- 72.7- 58.3---
2024-07-13 12:42 pm S 2.9 2.9----30.13- 72.7- 57.9---
2024-07-13 12:36 pm S 2.9 2.9----30.13- 72.7 66.2 58.1---
2024-07-13 12:30 pm S 4.1 5.1------ 72.3 69.3 58.8---
2024-07-13 12:24 pm S 5.1 5.1------ 72.3 68.5 59.4---
2024-07-13 12:18 pm S 4.1 4.1----30.13-------
2024-07-13 12:12 pmSSE 4.1 4.1----30.13-------
2024-07-13 12:06 pm S 4.1 4.1----30.14-------
2024-07-13 12:00 pm S 2.9 2.9----30.14+0.00 72.1 68.2 60.4---
2024-07-13 11:54 am S 4.1 4.1----30.14- 72.1 68.2 61.3---
2024-07-13 11:48 amSSE 2.9 4.1----30.14- 72.1 68.2 61.9---
2024-07-13 11:42 am S 2.9 4.1----30.14- 71.1 67.6 61.7---
2024-07-13 11:36 amSSE 4.1 4.1----30.14- 70.7 67.5 60.6---
2024-07-13 11:30 amSSE 2.9 4.1----30.14- 70.7 66.9 60.6---
2024-07-13 11:24 amSSE 4.1 5.1----30.14- 70.0 65.5 60.6---
2024-07-13 11:18 am S 4.1 4.1----30.14- 69.8 60.1 60.3---
2024-07-13 11:12 am S 2.9 4.1----30.14- 69.8 56.5 59.9---
2024-07-13 11:06 am S 2.9 2.9----30.14- 69.8 56.3 59.5---
2024-07-13 11:00 am S 1.9 1.9----30.14+0.00 70.2- 60.4---
2024-07-13 10:54 am S 1.9 1.9----30.14- 69.6- 61.2---
2024-07-13 10:48 am S 1.9 1.9----30.14- 69.3- 63.0---
2024-07-13 10:42 am- 0.0 1.0----30.14- 69.3- 63.3---
2024-07-13 10:36 am- 0.0 1.0----30.14- 69.1- 62.2---
2024-07-13 10:30 am W 1.0 1.9----30.14- 69.1- 62.1---
2024-07-13 10:24 am- 0.0 1.0----30.14- 69.3 62.4 61.3---
2024-07-13 10:18 amWNW 1.0 1.9----30.14- 69.6 68.4 59.7---
2024-07-13 10:12 amWNW 1.0 1.9----30.14- 69.3 69.4 61.5---
2024-07-13 10:06 amNNW 1.9 2.9----30.14- 68.4 68.9 62.2---
2024-07-13 10:00 am NW 2.9 2.9----30.14+0.01 68.4 69.1 62.4---
2024-07-13 09:54 am NW 2.9 4.1----30.14- 68.2 68.2 62.8---
2024-07-13 09:48 am NW 4.1 5.1----30.14- 68.0 67.5 64.2---
2024-07-13 09:42 amNNW 2.9 4.1----30.14- 68.4 67.1 62.2---
2024-07-13 09:36 am NW 1.9 1.9----30.14- 68.7 66.9 61.9---
2024-07-13 09:30 am NW 1.0 1.9----30.14- 68.5 66.9 61.9---
2024-07-13 09:24 am NW 1.9 1.9----30.14- 68.2 66.2 62.6---
2024-07-13 09:18 am NW 1.0 1.9----30.14- 68.4 64.6 62.4---
2024-07-13 09:12 amNNW 1.9 1.9----30.14- 67.8 62.6 63.7---
2024-07-13 09:06 amNNW 1.9 1.9----30.14- 67.6 59.5 63.7---
2024-07-13 09:00 am NW 1.0 2.9----30.14+0.02 67.6 56.7 64.0---
2024-07-13 08:54 amNNW 1.9 1.9----30.14- 67.5 54.7 63.7---
2024-07-13 08:48 amNNW 1.9 1.9----30.14- 67.5 55.9 62.2---
2024-07-13 08:42 am N 1.9 5.1----30.14- 66.9 56.5 63.0---
2024-07-13 08:36 am N 4.1 5.1----30.14- 66.2 55.6 66.2---
2024-07-13 08:30 am N 1.9 2.9----30.14- 66.2 57.6 63.9---
2024-07-13 08:24 am N 2.9 4.1----30.14- 67.8 61.2 61.5---
2024-07-13 08:18 am- 0.0 1.0----30.13- 69.6 66.2 59.9---
2024-07-13 08:12 am- 0.0 1.0----30.14- 69.3 66.4 60.1---
2024-07-13 08:06 am- 0.0 2.9----30.14- 68.5 65.8 59.9---
2024-07-13 08:00 am E 2.9 4.1----30.13+0.02 68.7 66.4 60.3---
2024-07-13 07:54 am E 4.1 5.1----30.13- 69.4 68.7 60.3---
2024-07-13 07:48 am E 5.1 7.0----30.13-- 68.5----
2024-07-13 07:42 am E 6.0 7.0----30.13-- 68.2----
2024-07-13 07:36 am E 6.0 7.0----30.13-- 67.6----
2024-07-13 07:30 am E 7.0 8.9----30.13-- 67.5----
2024-07-13 07:24 am E 8.0 8.0----30.13-- 68.2----
2024-07-13 07:18 am E 8.0 8.0----30.13- 67.8 67.8 67.1---
2024-07-13 07:12 am E 7.0 7.0----30.13- 67.8 66.7 67.5---
2024-07-13 07:06 am E 6.0 7.0----30.13- 66.7 65.8 64.6---
2024-07-13 07:00 am E 5.1 7.0----30.13- 66.9 63.1 64.6---
2024-07-13 06:54 am E 7.0 7.0----30.12- 66.7 59.7 66.7---
2024-07-13 06:48 am E 4.1 5.1----30.13- 66.2 60.4 66.2---
2024-07-13 06:42 am E 2.9 4.1----30.12- 66.0 60.6 65.5---
2024-07-13 06:36 am E 1.9 4.1----30.13- 65.7 60.4 62.2---
2024-07-13 06:30 am E 2.9 5.1----30.13- 66.2 59.2 64.9---
2024-07-13 06:24 am E 5.1 6.0----30.12- 65.8 59.9 65.8---
2024-07-13 06:18 am E 4.1 4.1----30.12- 65.8 66.0 64.9---
2024-07-13 06:12 am E 4.1 4.1----30.12- 65.8 68.9 64.0---
2024-07-13 06:06 am E 2.9 4.1----30.12- 66.4 67.8 62.2---
2024-07-13 06:00 am E 4.1 4.1----30.12+0.02- 67.5----
2024-07-13 05:54 am E 2.9 2.9----30.12-- 68.0----
2024-07-13 05:48 am E 1.9 1.9----30.12-- 68.4----
2024-07-13 05:42 am E 1.0 1.0----30.12-- 68.7----
2024-07-13 05:36 amESE 1.0 1.0----30.12-- 68.7----
2024-07-13 05:30 am E 1.0 1.9----30.12- 66.7 68.7 64.0---
2024-07-13 05:24 amESE 1.9 2.9----30.12- 66.7 69.1 66.7---
2024-07-13 05:18 am E 1.9 1.9----30.11- 66.6 68.9 65.1---
2024-07-13 05:12 am E 1.0 1.9----30.11- 66.4 68.2 61.9---
2024-07-13 05:06 am E 1.0 1.9----30.11- 66.9 66.7 65.7---
2024-07-13 05:00 am E 1.0 1.9----30.11+0.00 66.9 65.7 66.9---
2024-07-13 04:54 amENE 1.0 1.0----30.11- 66.4 62.4 63.3---
2024-07-13 04:48 am- 0.0 1.0----30.11- 66.6 61.0 63.3---
2024-07-13 04:42 am- 0.0 0.0----30.11- 66.9 61.2 63.5---
2024-07-13 04:36 am- 0.0 1.0----30.11- 66.9 61.5 63.1---
2024-07-13 04:30 amNNE 1.0 1.0----30.11- 67.1 62.1 62.6---
2024-07-13 04:24 am- 0.0 1.0----30.11- 67.3 62.4 62.6---
2024-07-13 04:18 am- 0.0 1.0----30.11- 67.1 62.4 62.6---
2024-07-13 04:12 am N 1.0 1.9----30.11- 66.7 62.6 61.3---
2024-07-13 04:06 am N 1.0 1.9----30.11- 66.7 63.9 62.8---
2024-07-13 04:00 am- 0.0 1.0------ 66.6 68.0 65.7---
2024-07-13 03:54 am- 0.0 1.0------ 67.3 69.4 63.1---
2024-07-13 03:48 am E 1.9 1.9----30.10- 67.5 70.0 56.8---
2024-07-13 03:42 am E 1.0 1.9----30.10- 67.5 70.3 62.4---
2024-07-13 03:36 am- 0.0 1.0----30.10- 67.6 70.3 61.2---
2024-07-13 03:30 amESE 1.0 2.9----30.10- 67.8 70.7 62.1---
2024-07-13 03:24 am E 2.9 4.1----30.10- 68.2 70.7 63.3---
2024-07-13 03:18 am E 2.9 4.1----30.10- 68.2 70.9 61.3---
2024-07-13 03:12 am E 5.1 7.0----30.10- 69.1 70.7 58.3---
2024-07-13 03:06 am E 7.0 7.0----30.10- 68.7 70.5 61.7---
2024-07-13 03:00 am E 6.0 7.0----30.10+0.00 68.4 67.6 64.8---
2024-07-13 02:54 am E 7.0 7.0----30.10- 68.2 64.8 65.5---
2024-07-13 02:48 am E 6.0 7.0----30.10- 68.4 64.0 66.2---
2024-07-13 02:42 am E 6.0 7.0----30.11- 68.5 64.9 66.0---
2024-07-13 02:36 am E 6.0 6.0----30.11- 68.5 65.1 68.2---
2024-07-13 02:30 am E 5.1 5.1----30.11- 68.5 64.9 66.9---
2024-07-13 02:24 am E 5.1 5.1----30.11- 68.4 65.5 66.6---
2024-07-13 02:18 am E 5.1 5.1----30.11- 68.2 66.0 66.2---
2024-07-13 02:12 am E 5.1 5.1----30.11- 68.5 65.8 66.7---
2024-07-13 02:06 am E 5.1 5.1----30.11- 68.7 67.3 66.9---
2024-07-13 02:00 am E 5.1 6.0----30.11+0.01 68.7 67.8 66.6---
2024-07-13 01:54 am E 5.1 5.1----30.11- 68.5 68.2 65.8---
2024-07-13 01:48 amENE 4.1 5.1----30.11- 68.5 69.3 64.9---
2024-07-13 01:42 am E 5.1 6.0----30.11- 68.7 68.4 64.9---
2024-07-13 01:36 am E 6.0 6.0----30.11- 68.5 68.7 66.4---
2024-07-13 01:30 am E 5.1 6.0----30.11- 68.7 68.7 66.0---
2024-07-13 01:24 am E 5.1 5.1----30.11- 68.7 69.3 64.6---
2024-07-13 01:18 am E 5.1 5.1----30.11- 68.9 71.1 65.8---
2024-07-13 01:12 am E 2.9 4.1----30.11- 68.7 71.2 64.8---
2024-07-13 01:06 am E 4.1 4.1----30.11- 68.9 70.9 64.2---
2024-07-13 01:00 am E 4.1 5.1----30.11+0.02 68.9 70.9 67.3---
2024-07-13 12:54 amENE 2.9 4.1----30.11- 68.7 70.3 65.7---
2024-07-13 12:48 amENE 1.9 2.9----30.11- 68.5 69.3 64.6---
2024-07-13 12:42 amENE 1.9 4.1----30.10- 68.7 68.5 63.7---
2024-07-13 12:36 am E 4.1 4.1----30.10- 68.9 65.5 64.8---
2024-07-13 12:30 am E 2.9 2.9----30.10- 69.1 61.9 63.0---
2024-07-13 12:24 am E 2.9 2.9----30.10- 69.1 61.5 64.0---
2024-07-13 12:18 am E 2.9 2.9----30.10- 69.3 61.7 65.8---
2024-07-13 12:12 am E 4.1 4.1----30.10- 69.4 63.7 65.7---
2024-07-13 12:06 am E 4.1 5.1----30.10- 69.8 64.6 64.2---
2024-07-13 12:00 am E 5.1 5.1----30.10+0.01 69.6 65.5 64.9---
2024-07-12 11:54 pm E 4.1 5.1----30.10- 69.8 63.7 64.8---
2024-07-12 11:48 pm E 4.1 5.1----30.10- 70.0 61.5 64.9---
2024-07-12 11:42 pm E 4.1 5.1----30.10- 70.5 61.3 63.5---
2024-07-12 11:36 pm E 4.1 4.1----30.10- 70.0 63.1 63.9---
2024-07-12 11:30 pmENE 1.9 2.9----30.10- 70.5 68.2 62.2---
2024-07-12 11:24 pmENE 1.9 1.9----30.10- 70.5 71.4 61.5---
2024-07-12 11:18 pm- 0.0 1.0----30.10- 70.9 71.2 61.2---
2024-07-12 11:12 pmENE 1.0 1.9----30.10- 71.1 71.1 60.3---
2024-07-12 11:06 pmENE 1.9 2.9----30.10- 71.1 70.5 60.8---
2024-07-12 11:00 pmENE 2.9 2.9----30.10+0.03 70.9 70.0 62.2---
2024-07-12 10:54 pm E 1.9 2.9----30.10- 70.7 70.0 61.3---
2024-07-12 10:48 pmENE 1.9 4.1----30.10- 70.9 70.2 60.6---
2024-07-12 10:42 pmNNE 2.9 4.1----30.09- 71.1 70.5 65.1---
2024-07-12 10:36 pm N 2.9 2.9----30.09- 70.0 71.4 68.2---
2024-07-12 10:30 pmNNE 2.9 2.9----30.09- 69.1 72.1 67.3---
2024-07-12 10:24 pm N 2.9 4.1----30.09- 68.9 71.4 65.1---
2024-07-12 10:18 pm N 4.1 5.1----30.09- 68.7 68.7 64.0---
2024-07-12 10:12 pmNNW 5.1 5.1----30.09- 69.3 65.3 66.7---
2024-07-12 10:06 pmNNW 5.1 5.1----30.09- 68.5 61.5 65.8---
2024-07-12 10:00 pmNNW 6.0 6.0----30.09+0.01 68.4 62.1 67.5---
2024-07-12 09:54 pmNNW 5.1 6.0----30.09- 67.5 62.2 66.4---
2024-07-12 09:48 pmNNW 6.0 6.0----30.09- 68.2 61.5 68.2---
2024-07-12 09:42 pmNNW 4.1 6.0----30.09- 67.1 59.7 65.1---
2024-07-12 09:36 pmNNW 2.9 6.0----30.08- 67.8 59.4 65.8---
2024-07-12 09:30 pmNNW 6.0 6.0----30.08- 68.4 63.5 67.8---
2024-07-12 09:24 pm N 5.1 6.0----30.09- 68.7 68.9 66.7---
2024-07-12 09:18 pm N 5.1 5.1----30.09- 68.9 70.2 67.1---
2024-07-12 09:12 pm N 6.0 6.0----30.09- 68.2 70.2 67.8---
2024-07-12 09:06 pm N 6.0 6.0----30.08- 68.2 70.5 66.2---
2024-07-12 09:00 pmNNW 6.0 6.0----30.08+0.01 68.7 71.2 66.7---
2024-07-12 08:54 pmNNW 6.0 6.0----30.08- 68.7 70.7 64.8---
2024-07-12 08:48 pmNNW 6.0 6.0----30.08- 69.1 70.0 64.4---
2024-07-12 08:42 pm N 6.0 6.0----30.08- 68.7 69.4 65.5---
2024-07-12 08:36 pm N 4.1 6.0----30.08- 70.2 69.3 64.0---
2024-07-12 08:30 pm N 6.0 7.0----30.08- 70.9 69.4 66.2---
2024-07-12 08:24 pm N 6.0 8.0----30.08- 68.9 69.1 65.5---
2024-07-12 08:18 pm N 8.0 8.0----30.07- 70.3 68.7 65.8---
2024-07-12 08:12 pmNNW 8.0 8.9----30.07- 71.2 66.9 66.0---
2024-07-12 08:06 pm N 8.0 8.0----30.07- 71.1 65.3 66.4---
2024-07-12 08:00 pm N 8.0 8.0----30.07+0.00 70.7 63.1 67.3---
2024-07-12 07:54 pm N 8.0 8.0----30.07- 70.7 61.5 67.8---